ONEWEB-0195 (48240 NORAD) Tracking and Keplerian Element Data

This shows tracking and keplerian element data for the satellite.

Feedback or suggestion? Click here.




ElementValue
Catalog48240
NameONEWEB-0195
Epoch Orbit177
Epoch Day136.91668981
Epoch Year2021
RAAN305.7529
Inclination87.4101
Eccentricity0.0007302
Argument of Perigee166.6703
Mean Anonmoly233.1013
Mean Motion15.18979596
Decay Rate-0.0139396
L11 48240U 21031AG 21136.91668981 -.01393960 00000-0 -73617-1 0 9994
L22 48240 87.4101 305.7529 0007302 166.6703 233.1013 15.18979596 1771

Live tracking and technical data element details for ONEWEB-0195 (NORAD 48240). ONEWEB-0195 can be tracked NOW for your location showing map with azimuth and elevation plus other details from your city location.

Track the satellite on the map from your city or location and see movement details for azimuth, elevation, latitude, longitude, range, height, and movement on the map or in text.







IsCatalogInMostPopularTable: catalog: 48240, numindb: 5
Update: records affected: 1



GetName: 48240 ONEWEB-0195

Hit Count: updated at: Mon, 17 May 2021 16:11:00 GMT